Regional Weather Roundup
Issued by NWS

Home | Current Version | Previous Version | Text Only | Print | Product List | Glossary Off
Versions: 1 2 3 4 5 6 7 8 9 10 11 12 13 14 15 16 17 18 19 20 21 22 23 24 25 26 27 28 29 30 31 32 33 34 35 36 37 38 39 40 41 42 43 44 45 46 47 48 49 50

000
ASUS43 KLOT 210706
RWRIL

ILLINOIS REGIONAL WEATHER ROUNDUP
NATIONAL WEATHER SERVICE CHICAGO/ROMEOVILLE IL
200 AM CDT THU AUG 21 2014

NOTE: "FAIR" INDICATES FEW OR NO CLOUDS BELOW 12,000 FEET WITH NO
SIGNIFICANT WEATHER AND/OR OBSTRUCTIONS TO VISIBILITY.

* THESE STATIONS ARE NOT UNDER NWS QUALITY CONTROL. THEY ALSO MAY NOT
  REPORT WEATHER SUCH AS PRECIPITATION OR FOG.

ILZ001-002-007-009-015-016-024-210800-
NORTHWEST ILLINOIS

CITY           SKY/WX    TMP DP  RH WIND       PRES   REMARKS
MOLINE         PTCLDY    69  67  93 E7        29.91F
STERLING*      CLOUDY    70  66  88 SE5       29.94F
SAVANNA*       CLOUDY    71  67  89 CALM      29.92F
$$

ILZ003-004-008-010-011-017-018-210800-
NORTH CENTRAL ILLINOIS

CITY           SKY/WX    TMP DP  RH WIND       PRES   REMARKS
ROCKFORD       CLOUDY    70  66  87 CALM      29.96S
FREEPORT*      CLOUDY    70  68  94 CALM      29.96F
ROCHELLE*      CLOUDY    69  66  91 CALM      29.95F
PERU*          CLOUDY    71  68  90 E5        29.96F
$$

ILZ005-006-012>014-019>023-210800-
NORTHEAST ILLINOIS

CITY           SKY/WX    TMP DP  RH WIND       PRES   REMARKS
CHICAGO-OHARE  CLOUDY    73  64  73 SW5       29.95S
CHICAGO-MIDWAY LGT RAIN  74  68  81 S6        29.95F
AURORA         CLOUDY    71  66  84 CALM      29.96F
LANSING*       HVY RAIN  70  67  91 SW7       29.99R
JOLIET*        CLOUDY    71  67  89 S3        29.98S
WAUKEGAN       PTCLDY    68  66  93 CALM      29.94F
DUPAGE AIRPORT CLOUDY    71  67  87 CALM      29.95F
KANKAKEE*      CLOUDY    70  68  93 CALM      29.99S
WHEELING       MOCLDY    75  68  78 SW3       29.96S
MORRIS*        CLOUDY    71  70  98 CALM      29.96F
ROMEOVILLE*    LGT RAIN  70  70  99 S7        29.97F
NORTHERLY ISL    N/A     75  64  68 S5          N/A
$$

LMZ740>746-210800-
SOUTHERN LAKE MICHIGAN

STATION/POSITION SKY/WX   TEMP    WIND        PRES    VSBY  WAVE
                          AIR SEA DIR/SP/G                  HT/PER
                          (F)     (DEG/KT/KT) (MB)    (MI)  (FT/S)
SOUTHERN BUOY              68 68   70/  6/  8 1014.1F         0
WAUKEGAN HARBOR            69      10/  5/  6   N/A
HARRISON CRIB              75     210/ 11/ 17   N/A
BURNHAM HARBOR             75     220/  3/  8   N/A
CALUMET HARBOR             74     210/  6/  8 1013.5F
MICHIGAN CITY              73     180/ 11/ 15   N/A
MICHIGAN CITY 6N           73 71  210/ 10/ 12   N/A           1/ 2
ST. JOSEPH                 72 71  200/  6/  8   N/A           1
$$

ILZ025>027-034>036-040-047-049-050-058-095>099-210800-
WEST-CENTRAL ILLINOIS

CITY           SKY/WX    TMP DP  RH WIND       PRES   REMARKS
QUINCY         CLEAR     74  69  85 S8        29.93F
GALESBURG*     MOCLDY    72  72  98 S3        29.93S
MACOMB*        CLEAR     71  70  98 S5        29.95S
JACKSONVILLE*  PTCLDY    75  71  85 S7        29.95F
PITTSFIELD*    CLEAR     73  70  88 S5        29.95F
$$

ILZ028>032-037-038-041>044-048-051>054-059>061-210800-
CENTRAL ILLINOIS

CITY           SKY/WX    TMP DP  RH WIND       PRES   REMARKS
PONTIAC        MOCLDY    72  72 100 E3        29.96F
DECATUR        CLOUDY    74  68  81 SW8       29.96F
PEORIA         MOCLDY    73  69  87 S7        29.94F
LACON*         MOCLDY    71  68  91 E3        29.94S
LINCOLN*       MOCLDY    72  70  93 S3        29.93S
SPRINGFIELD    PTCLDY    74  69  85 S7        29.95F
TAYLORVILLE    MOCLDY    70  68  94 S7        29.97S
$$

ILZ033-039-045-046-055>057-062-063-210800-
EAST-CENTRAL ILLINOIS

CITY           SKY/WX    TMP DP  RH WIND       PRES   REMARKS
CHAMPAIGN      CLOUDY    72  68  87 SW8       29.97F
DANVILLE*      RAIN      69  68  97 CALM      29.95F
RANTOUL*       CLOUDY    72  68  87 CALM      29.97F
MATTOON        CLOUDY    73  68  84 SW7       29.97F
PARIS*         CLOUDY    72  71  98 S5        29.99S THUNDER
$$

ILZ079-100>102-210800-
SOUTHWEST ILLINOIS

CITY           SKY/WX    TMP DP  RH WIND       PRES   REMARKS
ALTON          PTCLDY    72  72 100 SE3       29.97S
BELLEVILLE     MOCLDY    73  73 100 E2        29.97S
CAHOKIA*         N/A     76  74  93 MISG      29.96F
SPARTA*        CLOUDY    78  75  90 S6        30.00S HX  80
$$

ILZ064>066-069>071-074>076-080>082-084>086-088>090-092>094-210800-
SOUTH-CENTRAL ILLINOIS

CITY           SKY/WX    TMP DP  RH WIND       PRES   REMARKS
CARBONDALE     CLOUDY    80  72  76 S10       29.99F HX  84
CAIRO*         MOCLDY    80  73  79 S5        30.02F HX  84
MARION         CLOUDY    81  75  83 S14       30.01S HX  86
MT. VERNON     CLOUDY    72  66  83 SE3       30.00F
CENTRALIA*     CLOUDY    71  69  92 CALM      29.99F
SALEM*         CLOUDY    73  72  96 SE6       29.99F
$$

ILZ067-068-072-073-078-083-087-091-210800-
SOUTHEAST ILLINOIS

CITY           SKY/WX    TMP DP  RH WIND       PRES   REMARKS
LAWRENCEVILLE  CLOUDY    73  69  87 SW9       30.01S
FLORA*         CLOUDY    71  67  88 S8        29.99F
FAIRFIELD*     CLOUDY    72  72 100 SE5       30.01F
HARRISBURG*    CLOUDY    77  74  90 S3        30.02S
ROBINSON*      CLOUDY    72  68  88 S5        30.01R
CARMI*         RAIN      73  72  94 N6        30.05R
$$

ABBREVIATIONS USED IN REMARKS
   TC - TEMPERATURE IN CELSIUS
  WCI - WIND CHILL INDEX
   HX - HEAT INDEX
  VSB - VISIBILITY
$$



USA.gov is the U.S. government's official web portal to all federal, state and local government web resources and services.